Temperature
10 10 10 10 10 11 11 11 11 11 12 12 11 11 11 11 11 11 11 11 11 11 11 11 11 11 11 10 10 10 9 9 8 8 8 7 7 7 6 6 6 5 5
9 10 10 10 10 10 10 10 11 11 11 11 11 11 11 11 11 11 11 11 10 10 11 11 10 10 10 10 10 9 9 9 8 8 7 7 6 6 5 5 5 5 5
9 9 9 9 9 10 10 10 10 10 10 10 10 10 10 10 10 10 10 10 10 10 10 10 10 10 10 9 9 9 8 8 8 7 6 6 6 5 5 4 4 4 4
8 8 8 8 9 9 9 9 9 9 10 10 10 10 10 10 9 9 10 9 9 10 10 9 10 9 9 9 8 8 8 7 7 6 6 5 5 4 4 4 4 4 4
7 7 8 8 8 8 8 9 9 9 9 9 9 9 9 9 9 9 9 9 9 9 9 9 9 9 8 8 8 8 7 7 6 6 5 4 4 4 4 4 3 3 3
7 7 7 7 8 8 8 8 8 8 8 8 8 8 8 9 9 9 9 9 9 9 8 8 8 8 8 7 7 7 6 6 6 5 4 4 3 3 3 3 3 3 3
6 6 7 7 7 7 7 7 7 7 7 8 8 8 8 8 8 8 8 8 8 8 8 8 8 7 7 7 6 6 6 5 5 4 4 4 3 3 3 3 3 2 2
5 6 6 6 6 6 7 7 7 7 7 7 7 7 7 7 7 7 7 7 7 7 7 7 7 7 6 6 5 5 5 4 4 4 3 3 3 3 2 2 2 2 2
5 5 5 5 5 6 6 6 6 6 6 6 6 6 6 6 6 6 6 6 6 6 6 6 6 6 5 5 5 4 4 4 3 3 3 2 2 2 2 2 2 2 1
4 4 4 5 5 5 5 5 5 5 5 5 6 6 6 6 6 6 5 6 6 6 5 5 5 5 4 4 4 4 3 3 3 2 2 2 2 2 1 1 1 1 1
3 4 4 4 4 4 4 4 5 5 5 5 5 5 5 5 5 5 5 5 5 5 5 4 4 4 4 3 3 3 3 2 2 2 2 1 1 1 1 1 0 0 -0
3 3 3 3 4 4 4 4 4 4 4 4 4 4 4 4 4 4 4 4 4 4 4 4 4 3 3 3 2 2 2 1 1 1 1 1 1 0 0 -0 -0 -0 -1
2 2 3 3 3 3 3 3 3 3 3 3 3 4 4 4 3 3 3 3 3 3 3 3 3 2 2 2 2 1 1 1 1 1 0 0 -0 -0 -1 -1 -1 -1 -1
2 2 2 2 2 2 2 2 3 3 3 3 3 3 3 3 3 3 3 3 3 3 2 2 2 2 2 1 1 1 1 0 0 -0 -0 -1 -1 -1 -1 -1 -1 -1 -1
1 1 1 1 1 1 1 1 2 2 2 2 2 2 2 2 2 2 2 2 2 2 2 2 1 1 1 1 0 0 -0 -0 -1 -1 -1 -1 -1 -1 -2 -2 -2 -2 -2
0 0 1 1 1 1 1 1 1 1 1 1 1 1 1 2 2 2 2 2 1 1 1 1 1 1 0 0 -0 -0 -1 -1 -1 -1 -2 -2 -2 -2 -2 -2 -3 -3 -3
-0 -0 -0 0 0 -0 -0 0 0 0 0 1 1 1 1 1 1 1 1 1 1 1 0 0 0 0 -0 -0 -0 -1 -1 -1 -2 -2 -2 -2 -2 -3 -3 -3 -3 -3 -3
-1 -1 -1 -1 -1 -1 -1 -1 -0 -1 -0 -0 -0 -0 -0 0 0 0 0 -0 -0 -0 -0 -0 -0 -1 -1 -1 -1 -1 -1 -2 -2 -2 -2 -2 -3 -3 -3 -3 -3 -3 -3
-1 -1 -1 -1 -1 -1 -1 -1 -1 -1 -1 -1 -1 -1 -1 -1 -1 -1 -1 -1 -1 -0 -1 -1 -1 -1 -1 -1 -1 -2 -2 -2 -2 -3 -3 -3 -3 -3 -3 -3 -4 -4 -4
-2 -2 -2 -2 -2 -2 -2 -2 -2 -2 -2 -2 -2 -2 -2 -2 -2 -1 -1 -1 -1 -1 -1 -1 -2 -2 -2 -2 -2 -2 -2 -3 -3 -3 -3 -3 -3 -3 -4 -4 -4 -4 -4
-3 -3 -2 -2 -2 -3 -3 -3 -3 -3 -3 -3 -2 -2 -2 -2 -2 -2 -2 -2 -2 -2 -2 -2 -2 -2 -2 -2 -2 -3 -3 -3 -3 -3 -3 -3 -4 -4 -4 -4 -4 -4 -5
-3 -3 -3 -3 -3 -3 -3 -3 -3 -3 -3 -3 -3 -3 -3 -3 -3 -3 -3 -3 -3 -3 -3 -3 -3 -3 -3 -3 -3 -3 -3 -3 -3 -3 -4 -4 -4 -4 -4 -4 -4 -5 -5
-4 -4 -4 -4 -4 -4 -4 -4 -4 -4 -4 -4 -4 -4 -4 -4 -4 -4 -4 -4 -4 -3 -3 -3 -3 -3 -3 -3 -3 -4 -4 -4 -4 -4 -4 -4 -5 -5 -5 -5 -5 -5 -5
-5 -5 -4 -4 -5 -5 -5 -5 -5 -5 -5 -5 -5 -5 -5 -5 -5 -5 -5 -4 -4 -4 -4 -4 -4 -4 -4 -4 -4 -4 -4 -4 -5 -5 -5 -5 -5 -5 -5 -5 -6 -6 -6
-5 -5 -5 -5 -5 -5 -5 -5 -5 -5 -5 -5 -5 -5 -5 -5 -5 -5 -5 -5 -5 -5 -5 -5 -5 -5 -5 -5 -5 -5 -5 -5 -5 -5 -5 -5 -5 -6 -6 -6 -6 -6 -6
-6 -6 -6 -6 -6 -6 -6 -6 -6 -6 -6 -6 -6 -6 -6 -6 -6 -6 -6 -6 -5 -5 -5 -5 -5 -5 -5 -5 -5 -5 -5 -5 -5 -6 -6 -6 -6 -6 -6 -6 -6 -6 -7
Wind_Speed
0 1 1 2 3 3 4 4 4 4 6 8 9 9 9 9 9 8 8 8 8 7 6 7 6 5 4 4 3 3 3 3 3 1 2 2 2 3 3 3 3 2 2
2 1 1 0 2 3 3 3 3 4 5 7 8 8 9 9 9 9 9 9 9 9 8 7 7 6 6 5 4 4 3 3 3 3 1 1 2 2 2 1 1 2 2
4 2 2 1 0 1 2 2 3 3 4 5 6 7 8 8 8 8 8 8 8 8 8 9 8 8 6 5 5 4 3 3 3 3 2 2 1 2 2 1 1 1 2
5 4 3 2 1 1 1 2 2 3 3 4 5 6 6 7 7 7 7 8 7 7 7 7 7 8 7 7 6 5 5 4 4 3 3 2 2 1 2 1 1 0 0
5 4 3 3 2 1 1 1 2 2 3 4 4 5 5 5 6 7 7 8 8 8 7 6 6 7 8 6 5 5 5 4 4 4 3 2 3 2 3 2 2 1 0
5 4 3 3 3 2 0 1 2 2 3 3 4 5 5 4 7 9 8 7 8 9 8 7 7 7 8 8 8 6 6 5 5 4 3 4 4 4 3 3 3 2 2
5 5 4 3 3 2 1 1 2 2 2 3 3 4 4 6 9 10 10 7 8 8 8 8 6 6 8 7 7 7 5 4 4 4 4 4 3 4 5 4 3 3 3
5 4 4 4 3 3 1 1 2 2 3 2 3 4 4 5 8 9 10 7 6 7 7 8 8 8 7 8 7 6 4 3 3 3 3 2 2 3 4 4 4 3 2
5 4 4 3 3 2 1 1 1 2 2 2 3 4 5 5 8 9 8 6 6 6 6 6 7 8 11 11 8 7 5 3 4 6 5 5 4 4 5 4 4 3 1
6 5 4 3 2 2 1 1 1 2 2 3 3 3 5 5 7 8 8 5 6 6 5 5 7 9 12 12 8 8 7 5 5 4 4 3 3 4 4 4 4 3 2
6 6 4 3 2 1 1 1 2 3 3 3 3 3 3 5 6 7 7 5 6 6 5 4 5 11 11 11 9 6 7 7 6 5 4 3 3 3 3 3 3 3 3
6 5 4 3 2 1 1 1 2 3 3 3 3 3 2 3 5 5 6 6 6 5 5 5 6 11 11 10 7 8 10 8 5 4 3 3 3 2 2 3 4 4 3
6 5 4 3 2 1 0 1 1 2 2 2 3 3 2 2 3 6 6 7 7 4 4 8 10 11 9 7 8 9 7 5 5 4 4 3 3 3 4 3 4 4 5
5 5 3 2 2 2 1 0 1 1 2 2 3 3 2 2 3 3 4 4 5 4 4 7 9 9 7 6 6 5 4 5 5 4 4 3 4 4 3 3 2 2 1
5 4 3 2 1 1 1 1 1 1 1 2 3 3 4 4 5 6 5 4 4 5 5 4 4 4 4 4 4 4 4 4 4 4 4 4 4 4 3 3 3 2 2
5 5 3 2 2 1 1 2 3 2 1 1 0 1 2 3 5 6 7 7 8 9 6 5 5 6 6 6 6 5 5 5 5 5 4 5 5 5 4 3 3 3 3
5 5 3 3 2 2 1 1 1 3 3 1 0 1 1 2 4 5 7 7 8 9 5 5 6 6 6 6 6 6 5 5 5 5 5 5 5 5 4 4 4 4 4
5 5 4 3 2 2 1 1 1 1 2 1 1 1 2 3 3 4 6 6 5 5 4 5 5 6 6 6 6 5 5 5 5 5 5 5 6 5 5 5 5 5 5
4 4 3 3 2 2 2 2 1 2 2 1 1 1 2 3 3 5 5 3 4 4 4 4 5 5 5 5 5 5 6 5 5 6 6 6 6 6 6 6 6 8 7
4 6 5 3 3 2 2 2 2 2 2 2 2 2 1 1 2 2 3 2 3 3 3 4 4 5 5 5 6 6 6 6 6 6 6 6 6 6 6 7 6 6 6
4 5 6 4 2 2 3 2 2 2 2 2 2 2 3 2 2 3 3 3 3 3 3 3 3 4 4 4 5 6 6 6 6 6 6 6 6 6 6 6 6 6 5
3 3 3 3 3 3 3 2 2 2 2 2 2 2 3 1 1 2 2 2 2 2 2 2 3 3 4 4 5 5 5 6 6 6 6 6 6 6 6 6 6 6 6
3 4 4 3 3 4 4 2 2 2 2 2 2 2 1 1 1 1 1 1 1 1 1 2 2 2 3 4 5 5 5 6 6 6 6 6 6 6 6 7 7 7 7
4 4 4 4 3 3 3 3 2 2 2 2 2 2 2 2 1 1 1 1 1 1 1 2 2 2 2 3 4 5 6 6 7 7 7 6 6 6 6 6 6 7 7
3 4 4 4 3 3 3 3 3 2 2 2 2 2 2 2 2 2 2 1 1 2 2 2 2 3 4 4 4 5 6 7 7 7 7 5 6 6 6 6 6 6 7
3 4 3 3 3 3 3 3 3 3 3 3 3 3 3 2 2 2 2 2 2 2 2 2 2 2 3 4 5 6 7 8 9 9 7 6 6 6 6 6 7 7 7
Wind_Direction
229 202 201 195 187 177 186 196 201 199 191 184 185 186 183 181 179 180 180 175 175 176 171 169 168 158 161 164 158 163 170 160 184 171 92 106 111 115 105 93 92 89 97
357 352 315 330 184 182 189 196 192 192 192 191 183 184 184 182 180 182 181 179 178 181 177 169 169 163 166 165 165 169 169 165 167 180 154 121 106 125 118 102 77 87 108
7 1 358 3 301 193 186 187 178 175 178 182 178 182 182 180 180 182 178 176 179 180 175 173 168 165 171 164 158 159 160 155 148 154 157 130 113 117 112 80 67 57 112
7 1 358 358 356 304 202 175 169 169 173 175 175 177 176 174 178 178 172 172 173 170 164 163 160 165 168 163 162 161 157 155 151 150 158 156 148 135 154 190 209 181 149
9 8 0 6 15 27 55 152 156 164 169 170 170 167 168 170 176 174 171 168 164 156 149 146 145 142 142 148 156 158 158 162 160 162 170 168 176 177 200 185 187 166 233
5 3 2 7 15 14 14 153 141 148 148 154 168 165 169 174 169 168 164 161 160 155 151 144 142 139 140 140 141 143 150 161 170 171 183 193 201 192 170 164 153 154 230
357 357 1 6 9 6 13 111 143 143 141 144 154 155 162 164 164 164 158 156 157 156 154 153 152 151 145 139 139 129 121 126 148 162 177 191 180 173 159 165 178 186 207
355 359 0 360 360 3 23 86 110 121 133 135 144 140 136 145 148 150 147 144 148 150 154 158 155 150 154 150 144 136 126 111 112 117 141 142 134 138 158 169 169 141 84
353 354 355 358 355 350 347 77 95 107 112 117 134 141 136 139 148 149 143 139 138 141 146 153 154 153 160 154 144 141 135 128 114 115 114 112 117 135 143 127 138 148 186
343 341 342 347 358 357 354 41 82 111 117 112 105 127 135 141 153 154 151 144 143 144 141 144 155 160 163 160 154 154 160 165 149 138 125 115 111 119 134 146 162 167 169
336 337 341 347 353 353 29 77 106 114 116 115 112 116 130 142 153 157 161 153 154 152 155 158 165 169 168 169 165 161 169 157 148 147 144 132 112 102 91 95 114 154 171
337 337 336 338 350 12 93 104 116 127 130 131 128 123 123 138 151 161 166 165 157 153 163 163 164 168 168 169 167 163 162 152 140 143 147 151 146 136 118 101 94 94 103
338 337 334 342 354 356 141 154 152 154 151 152 150 153 148 140 158 166 170 168 168 156 157 162 162 166 166 168 173 171 164 151 151 161 172 178 166 152 134 115 98 92 77
334 331 333 337 337 335 344 169 186 184 174 169 170 172 169 169 171 166 166 167 164 156 147 156 159 163 161 165 172 174 163 167 168 175 175 167 151 146 154 157 157 152 125
334 330 332 328 324 332 335 328 284 256 203 193 198 187 184 201 202 187 177 175 167 166 147 134 139 150 167 169 168 170 172 177 184 170 167 166 166 167 175 170 167 176 188
333 332 330 327 323 325 330 353 16 355 359 356 222 210 223 213 186 187 188 186 181 174 161 163 175 182 188 187 185 185 187 191 188 180 178 178 179 182 183 177 178 194 211
330 326 326 325 323 321 327 315 334 2 13 2 267 212 210 198 191 187 186 186 187 182 183 181 187 191 192 190 190 190 193 192 183 182 186 187 186 186 186 191 196 207 217
332 330 331 323 318 314 311 299 286 286 311 337 315 230 213 208 202 193 184 177 192 196 192 190 193 192 190 190 190 191 191 185 184 188 192 192 192 193 197 202 205 210 215
330 332 331 324 318 311 306 299 290 279 278 293 317 275 232 214 207 206 193 194 197 204 201 196 193 191 191 190 189 188 188 190 189 190 195 197 197 198 206 208 209 218 217
324 327 331 326 324 322 313 302 294 278 269 262 256 251 220 205 204 206 207 201 202 206 204 202 198 195 193 191 188 188 189 191 193 198 199 198 199 203 209 209 209 212 216
321 322 324 321 319 317 313 305 297 288 281 276 272 262 248 232 219 215 213 209 210 211 208 206 201 196 196 192 192 194 195 197 198 200 202 202 202 205 209 210 212 213 213
314 314 315 311 312 311 311 309 303 295 286 284 290 285 269 263 239 229 220 216 217 217 208 198 200 199 194 192 193 196 201 203 203 204 205 204 205 205 205 208 210 210 210
311 313 313 312 312 313 316 314 308 303 299 295 296 298 289 265 255 250 239 221 210 216 206 197 200 207 200 194 196 197 204 208 205 201 202 204 206 207 207 209 210 209 212
309 310 310 309 309 311 312 313 314 316 315 312 310 305 294 281 275 275 268 251 225 222 209 199 198 196 195 199 207 210 215 217 211 208 203 204 206 208 209 212 213 215 216
309 310 310 307 306 305 308 310 312 313 311 310 308 308 303 291 286 286 280 258 234 233 236 225 211 208 209 212 220 228 232 230 224 215 207 206 209 209 211 214 215 215 215
302 304 305 306 306 304 304 304 305 305 303 301 300 296 292 283 273 268 267 258 250 250 250 247 240 234 231 234 237 240 241 238 234 229 217 209 209 212 210 216 217 218 216
Height
1447 1448 1450 1451 1454 1456 1458 1461 1463 1466 1469 1472 1475 1478 1481 1484 1487 1490 1492 1495 1497 1500 1503 1505 1507 1510 1512 1513 1515 1516 1518 1519 1520 1521 1521 1522 1522 1522 1522 1522 1521 1521 1522
1445 1446 1448 1449 1451 1452 1454 1456 1459 1461 1463 1466 1469 1472 1475 1478 1480 1483 1485 1488 1491 1494 1497 1499 1502 1504 1506 1508 1509 1511 1512 1514 1515 1516 1517 1517 1517 1518 1518 1518 1518 1518 1518
1444 1445 1446 1446 1448 1449 1451 1452 1455 1456 1458 1461 1463 1466 1469 1472 1475 1477 1480 1483 1486 1489 1491 1494 1496 1499 1501 1503 1504 1506 1507 1509 1510 1511 1512 1512 1513 1513 1514 1514 1514 1514 1515
1443 1443 1444 1444 1445 1446 1447 1449 1451 1452 1454 1456 1458 1461 1464 1466 1469 1472 1475 1478 1481 1483 1486 1488 1491 1493 1495 1497 1499 1500 1502 1504 1505 1505 1507 1507 1508 1509 1510 1510 1510 1511 1511
1442 1442 1442 1442 1442 1443 1444 1446 1447 1448 1450 1452 1454 1456 1459 1461 1464 1467 1470 1473 1475 1478 1480 1483 1485 1488 1490 1492 1494 1495 1497 1498 1499 1500 1501 1502 1503 1504 1505 1506 1506 1507 1507
1442 1441 1441 1440 1440 1440 1441 1442 1443 1445 1446 1448 1450 1452 1455 1457 1460 1463 1466 1468 1470 1472 1475 1478 1480 1482 1485 1487 1489 1491 1492 1494 1495 1496 1497 1498 1499 1500 1501 1502 1502 1502 1503
1441 1440 1439 1438 1437 1437 1438 1439 1440 1442 1443 1445 1446 1448 1451 1453 1456 1458 1461 1464 1465 1468 1470 1473 1475 1478 1480 1482 1485 1486 1488 1489 1491 1492 1493 1494 1495 1495 1497 1497 1498 1498 1499
1440 1439 1437 1437 1436 1436 1436 1436 1437 1439 1440 1442 1443 1445 1447 1449 1451 1454 1456 1459 1461 1463 1466 1468 1470 1473 1476 1478 1480 1482 1484 1485 1486 1487 1489 1490 1491 1491 1492 1494 1494 1495 1495
1439 1438 1437 1436 1435 1435 1434 1434 1435 1436 1438 1439 1440 1442 1443 1445 1448 1450 1452 1454 1457 1459 1462 1465 1467 1469 1471 1473 1476 1477 1479 1480 1482 1483 1485 1486 1486 1487 1488 1489 1490 1490 1491
1437 1436 1435 1435 1434 1433 1433 1433 1433 1435 1436 1437 1438 1439 1441 1442 1445 1447 1449 1450 1453 1456 1458 1461 1463 1465 1467 1469 1471 1473 1475 1476 1478 1479 1481 1482 1482 1483 1484 1485 1486 1487 1487
1436 1435 1434 1433 1432 1432 1432 1432 1432 1433 1434 1435 1436 1438 1439 1440 1442 1443 1445 1448 1450 1452 1454 1457 1459 1461 1463 1465 1467 1469 1471 1473 1474 1476 1477 1478 1478 1479 1480 1481 1481 1483 1484
1435 1433 1432 1431 1431 1431 1430 1430 1430 1431 1432 1433 1434 1435 1437 1438 1439 1441 1443 1445 1447 1449 1451 1453 1456 1458 1460 1462 1464 1465 1467 1469 1470 1472 1473 1474 1475 1476 1476 1477 1478 1479 1480
1433 1431 1430 1430 1429 1429 1429 1429 1429 1430 1430 1431 1432 1433 1434 1436 1437 1439 1440 1442 1445 1446 1448 1450 1452 1454 1456 1458 1460 1462 1463 1465 1467 1468 1469 1471 1472 1472 1473 1473 1474 1475 1476
1431 1430 1429 1428 1427 1427 1427 1427 1427 1428 1428 1429 1429 1430 1432 1433 1435 1436 1438 1440 1441 1443 1445 1447 1449 1451 1453 1455 1456 1458 1460 1462 1463 1465 1466 1467 1468 1468 1469 1470 1471 1472 1473
1430 1429 1428 1427 1426 1425 1425 1425 1426 1426 1427 1427 1428 1428 1429 1431 1432 1434 1435 1437 1438 1440 1442 1443 1445 1448 1449 1451 1453 1455 1456 1458 1459 1461 1462 1463 1464 1465 1466 1467 1467 1468 1469
1429 1428 1426 1425 1425 1424 1423 1423 1424 1425 1425 1425 1426 1427 1427 1428 1429 1430 1432 1434 1435 1437 1438 1439 1441 1444 1445 1447 1449 1451 1452 1454 1456 1457 1458 1460 1461 1461 1462 1463 1464 1465 1465
1428 1426 1425 1424 1423 1422 1422 1421 1421 1421 1422 1423 1423 1423 1424 1425 1426 1427 1428 1430 1431 1433 1434 1435 1437 1439 1441 1443 1445 1447 1448 1450 1452 1453 1454 1456 1457 1457 1458 1459 1460 1461 1462
1426 1425 1423 1422 1421 1420 1419 1419 1418 1418 1418 1419 1420 1420 1421 1422 1423 1424 1425 1426 1427 1429 1430 1432 1433 1435 1437 1439 1440 1442 1444 1446 1447 1449 1450 1451 1452 1453 1454 1455 1456 1457 1458
1424 1423 1421 1420 1419 1418 1417 1417 1416 1416 1416 1416 1416 1417 1418 1419 1419 1421 1421 1422 1423 1425 1426 1428 1429 1431 1433 1434 1436 1438 1440 1441 1443 1444 1445 1447 1448 1449 1449 1450 1452 1453 1454
1422 1421 1419 1418 1417 1416 1415 1415 1414 1414 1413 1413 1414 1414 1415 1415 1415 1417 1418 1419 1420 1421 1422 1423 1425 1427 1428 1430 1431 1433 1435 1436 1438 1439 1440 1442 1443 1444 1445 1446 1447 1448 1449
1419 1418 1417 1416 1415 1414 1413 1412 1412 1411 1411 1411 1411 1411 1412 1412 1412 1413 1414 1415 1416 1417 1418 1419 1420 1422 1423 1425 1427 1428 1430 1431 1432 1434 1435 1436 1438 1439 1440 1441 1442 1443 1444
1417 1416 1415 1413 1412 1412 1411 1410 1409 1409 1408 1408 1408 1408 1408 1408 1409 1409 1410 1411 1412 1413 1414 1415 1416 1417 1419 1420 1422 1423 1424 1425 1427 1428 1429 1431 1432 1433 1434 1435 1437 1438 1439
1414 1413 1411 1410 1409 1409 1408 1407 1407 1406 1406 1405 1405 1405 1405 1405 1405 1405 1406 1406 1407 1408 1409 1410 1411 1412 1414 1415 1416 1417 1419 1420 1421 1423 1424 1425 1426 1428 1429 1430 1431 1432 1433
1411 1410 1408 1407 1406 1406 1405 1404 1404 1403 1403 1402 1402 1402 1401 1401 1401 1401 1402 1402 1403 1404 1405 1405 1406 1407 1408 1410 1411 1412 1413 1414 1416 1417 1418 1419 1420 1422 1423 1424 1425 1426 1427
1409 1407 1406 1405 1404 1403 1402 1402 1401 1400 1400 1399 1399 1398 1398 1397 1397 1397 1398 1398 1399 1399 1400 1400 1401 1402 1403 1405 1406 1406 1407 1408 1409 1411 1412 1413 1414 1415 1417 1418 1419 1420 1421
1406 1404 1403 1402 1401 1400 1399 1399 1398 1398 1397 1396 1396 1395 1394 1394 1394 1394 1394 1394 1394 1395 1395 1396 1396 1397 1398 1399 1400 1401 1401 1402 1404 1405 1406 1407 1408 1409 1411 1412 1413 1414 1415